Tracking 29892 objects as of 21-Nov-2024
HD Live streaming from Space Station
objects crossing your sky now

COSMOS 1132

Track COSMOS 1132 now!
10-day predictions
COSMOS 1132 is classified as:


NORAD ID: 11540
Int'l Code: 1979-084C
Perigee: 1,432.8 km
Apogee: 1,488.3 km
Inclination: 74.0 °
Period: 115.0 minutes
Semi major axis: 7831 km
RCS: 0.6965 m2 (medium)
Launch date: September 25, 1979
Source: Commonwealth of Independent States (former USSR) (CIS)
Launch site: PLESETSK MISSILE AND SPACE COMPLEX (PKMTR)
Your satellite tracking list
Your tracking list is empty




NASA's NSSDC Master Catalog

Two Line Element Set (TLE):
1 11540U 79084C   24325.83216022  .00000016  00000-0  20423-3 0  9990
2 11540  74.0245 259.4195 0035383  58.7776 330.1724 12.52655456 64878
Source of the keplerian elements: AFSPC